Flag for Canada Weather past 2 weeks in Sarnia, Ontario, Canada

Now
21 °F

Clear.


Feels Like: 12 °F
Forecast: 9 / 25 °F
Wind: 8 mph from West

Location: Sarnia Airport

Current Time: Mar 2, 2015 at 2:53:44 AM

Latest Report: Mar 2, 2015 at 2:00 AM


Visibility: 9 mi

Pressure: 30.22 "Hg

Humidity: 80%

Dew point: 16 °F

Location of SarniaLocation

Historic Weather in Sarnia — Graph

°F

Sarnia temperature yesterday

Maximum temperature yesterday: 25 °F (at 2:00 PM)
Minimum temperature yesterday: 10 °F (at 12:00 AM)
Average temperature yesterday: 17 °F

Past Weeks' High & Low Weather Summary

 TemperatureHumidityPressure
High25 °F (Mar 1, 2:00 PM)93% (Feb 17, 9:00 PM)30.80 "Hg (Feb 17, 9:00 PM)
Low-18 °F (Feb 16, 7:00 AM)41% (Feb 23, 12:00 PM)29.63 "Hg (Feb 25, 12:00 AM)
Average7 °F72%30.24 "Hg
* Reported Feb 15 1:00 AM — Mar 2 1:00 AM, Sarnia, Weather by CustomWeather, © 2015

Note: Actual official high and low records may vary slightly from our data, if they occured in-between our weather recording intervals... More about our weather records

Advertising

Sarnia weather history for previous 24 hours

 ConditionsComfort  
Time TempWeatherWind HumidityBarometerVisibility
1:00 AM
Mon, Mar 2
23 °FOvercast.7 mph74%30.21 "Hg9 mi
12:00 AM23 °FMostly cloudy.6 mph68%30.22 "Hg9 mi
11:00 PM
Sun, Mar 1
21 °FOvercast.6 mph74%30.22 "Hg9 mi
10:00 PM18 °FPassing clouds.5 mph79%30.21 "Hg9 mi
9:00 PM16 °FClear.3 mph93%30.22 "Hg7 mi
8:00 PM18 °FPassing clouds.5 mph86%30.24 "Hg9 mi
7:00 PM19 °FClear.2 mph79%30.23 "Hg9 mi
6:00 PM25 °FScattered clouds.3 mph63%30.22 "Hg9 mi
5:00 PM23 °FScattered clouds.No wind68%30.25 "Hg9 mi
4:00 PM25 °FPassing clouds.6 mph63%30.26 "Hg9 mi
3:00 PM25 °FScattered clouds.8 mph63%30.28 "Hg9 mi
2:00 PM25 °FScattered clouds.8 mph69%30.29 "Hg9 mi
1:00 PM23 °FPartly sunny.7 mph74%30.33 "Hg9 mi
12:53 PM23 °FPartly sunny.7 mph74%30.33 "Hg9 mi
12:00 PM21 °FPassing clouds.6 mph80%30.36 "Hg8 mi
11:00 AM19 °FScattered clouds.6 mph79%30.38 "Hg9 mi
10:00 AM18 °FLight snow. Broken clouds.5 mph86%30.42 "Hg9 mi
9:00 AM16 °FLight snow. Mostly cloudy.2 mph86%30.44 "Hg9 mi
8:00 AM14 °FLight snow. Overcast.2 mph85%30.44 "Hg7 mi
7:55 AM14 °FLight snow. Overcast.3 mph85%30.44 "Hg6 mi
7:00 AM14 °FLight snow. Overcast.6 mph85%30.46 "Hg9 mi
6:55 AM12 °FLight snow. Overcast.5 mph92%30.46 "Hg9 mi
6:03 AM12 °FLight snow. Mostly cloudy.2 mph85%30.47 "Hg6 mi
5:00 AM12 °FLight snow. Overcast.3 mph85%30.47 "Hg5 mi
4:57 AM12 °FLight snow. Overcast.3 mph85%30.47 "Hg5 mi
4:00 AM12 °FLight snow. Overcast.5 mph85%30.49 "Hg6 mi
3:51 AM12 °FLight snow. Overcast.7 mph85%30.50 "Hg6 mi
3:00 AM12 °FLight snow. Overcast.3 mph79%30.53 "Hg5 mi
2:58 AM12 °FLight snow. Overcast.5 mph79%30.53 "Hg5 mi
2:00 AM12 °FOvercast.5 mph73%30.56 "Hg9 mi
Weather by CustomWeather, © 2015

See weather overviewHow to use our weather pages